カタログに戻る

COSMOS 2119

運用中軍事PO
NORAD 21033·PAYLOAD·🇷🇺 Russia

打ち上げ Dec 22, 1990 から Plesetsk Cosmodrome

Loading…

次のパス (今後24時間)

TLE

最新Source: Space-Track

元期: Sep 14, 2026, 13:31 UTC

1 21033U 90114F   26257.56376182  .00000023  00000-0  64865-4 0  9992
2 21033  82.5701 116.4351 0014731 126.7291 247.5469 12.66375830651346

AllMySatでCOSMOS 2119をリアルタイム追跡

Download on the App Store